Location: Laan Hart van Zuid
(52.2563°N, 6.7904°E)
Time: 10:24:04
(UTC+02:00)

ISS - Pass Details

Date: 16 May 2024
Orbit: 411 x 419 km, 51.6° (Epoch: 29 May)

Event Time Altitude Azimuth Distance (km) Brightness Sun altitude
Rises 23:15:06 0° 269° (W) 2,374 0.5 -12.7°
Reaches altitude 10° 23:17:13 10° 269° (W) 1,507 -0.5 -12.8°
Maximum altitude 23:20:36 83° 183° (S) 429 -3.8 -13.1°
Enters shadow 23:23:49 11° 94° (E) 1,439 -1.4 -13.3°
